[[{"header":{"parameterUnit":"m.s-1","parameterCategory":1,"la1":30.2991,"la2":30.254,"lo1":-89.0895,"lo2":-89.0444,"dy":0.0017,"dx":0.0017,"nx":28,"ny":28,"refTime":"2025-09-13T21:00:00:Z","depth":0,"parameterNumber":2,"parameterNumberName":"U-component_of_WINDS"},"data":[0,0,0,0,0,0,0,0,0,0,0,0,0,0,0,0,0,0,0,0,0,0,0,0,0,0,0,0,0,0,0,0,0,0,0,0,0,0,0,0,0,0,0,0,0,0,0,0,0,0,0,0,0,0,0,0,0,0,-0.0578,-0.0577,0,-0.05,-0.0499,-0.0498,-0.0441,-0.044,-0.044,-0.0439,-0.0361,-0.0359,-0.0358,0,0,0,0,0,0,0,0,0,0,0,0,0,-0.0681,-0.0679,-0.0578,-0.0577,-0.0576,-0.05,-0.0499,-0.0498,-0.0441,-0.044,-0.044,-0.0439,-0.0361,-0.0359,-0.0357,0,0,0,0,0,0,0,0,0,0,0,0,0,-0.0623,-0.0679,-0.0579,-0.0539,-0.0534,-0.05,-0.0499,-0.0497,-0.0441,-0.044,-0.0439,-0.0439,-0.0362,-0.036,-0.0357,-0.0357,0,0,-0.035,-0.0349,0,0,0,0,0,0,0,0,-0.0626,-0.0619,-0.0546,-0.0541,-0.0537,-0.0479,-0.0506,-0.045,-0.0441,-0.0477,-0.0439,-0.0438,-0.0401,-0.0395,-0.0382,-0.0353,-0.035,-0.0349,-0.0348,-0.0347,-0.0346,0,0,0,0,0,0,0,-0.063,-0.0622,-0.0547,-0.0545,-0.0539,-0.0525,-0.0516,-0.0495,-0.0444,-0.0473,-0.0469,-0.046,-0.0398,-0.0385,-0.038,-0.0348,-0.035,-0.0347,-0.0346,-0.0345,-0.0314,-0.0314,0,0,0,0,0,0,-0.064,-0.0626,-0.055,-0.0545,-0.058,-0.0524,-0.0514,-0.0498,-0.0444,-0.0435,-0.0461,-0.0458,-0.0389,-0.0383,-0.0377,-0.0372,-0.0347,-0.0345,-0.0343,-0.0313,-0.0314,-0.0314,0,0,0,0,0,0,-0.0643,-0.0634,-0.0553,-0.0584,-0.0573,-0.0523,-0.0506,-0.0497,-0.0483,-0.0435,-0.0425,-0.0456,-0.0388,-0.038,-0.0362,-0.0369,-0.0344,-0.0341,-0.0312,-0.0313,-0.0314,-0.0363,0,0,0,0,0,0,-0.0646,-0.0635,-0.0634,-0.0585,-0.0571,-0.0539,-0.0506,-0.0496,-0.0479,-0.0474,-0.0428,-0.0419,-0.0387,-0.0366,-0.0359,-0.0365,-0.0339,-0.0311,-0.0313,-0.0314,-0.0361,-0.0366,-0.037,0,0,0,0,0,-0.065,-0.0652,-0.0635,-0.0626,-0.0569,-0.0539,-0.0532,-0.0494,-0.048,-0.0479,-0.0447,-0.0421,-0.0369,-0.0364,-0.0357,-0.0362,-0.0311,-0.0312,-0.0314,-0.0359,-0.0365,-0.037,0,0,0,0,0,0,-0.0706,-0.0645,-0.0625,-0.0611,-0.0581,-0.053,-0.0527,-0.0502,-0.0476,-0.0473,-0.0427,-0.0417,-0.0403,-0.038,-0.0376,-0.0357,-0.0336,-0.0336,-0.0373,-0.0379,-0.0383,-0.0389,-0.0337,0,0,0,0,0,-0.0716,-0.0696,-0.0645,-0.0637,-0.0623,-0.0578,-0.0564,-0.0537,-0.0504,-0.0491,-0.0458,-0.0428,-0.0404,-0.039,-0.0366,-0.0357,-0.0346,-0.0356,-0.0361,-0.0365,-0.0366,-0.0359,-0.0363,-0.0319,-0.0319,-0.0319,0,0,-0.0738,-0.0702,-0.0693,-0.0648,-0.0621,-0.0602,-0.0568,-0.0549,-0.0535,-0.0489,-0.0469,-0.0443,-0.0406,-0.0392,-0.0385,-0.0373,-0.0375,-0.0367,-0.037,-0.0369,-0.0361,-0.0365,-0.0369,-0.032,-0.032,-0.032,0,0,-0.0768,-0.0739,-0.0729,-0.0703,-0.0662,-0.0632,-0.063,-0.0582,-0.0563,-0.0542,-0.0507,-0.0489,-0.045,-0.0425,-0.0407,-0.0426,-0.0401,-0.0419,-0.0444,-0.0437,-0.0441,-0.0444,-0.0451,-0.0454,-0.042,-0.042,-0.042,0,-0.0801,-0.077,-0.0728,-0.0711,-0.0692,-0.0648,-0.0638,-0.0615,-0.0569,-0.0557,-0.0544,-0.0493,-0.0465,-0.0444,-0.0449,-0.0436,-0.0432,-0.0425,-0.0444,-0.0446,-0.0448,-0.0454,-0.0457,-0.0423,-0.0422,-0.0422,-0.0422,0,-0.0812,-0.0791,-0.0789,-0.0744,-0.0725,-0.0712,-0.0668,-0.0653,-0.0628,-0.0599,-0.0578,-0.0542,-0.051,-0.0503,-0.0478,-0.0478,-0.0472,-0.0452,-0.043,-0.0455,-0.046,-0.0462,-0.0426,-0.0425,-0.0425,-0.0424,0,0,-0.0877,-0.0808,-0.0808,-0.0787,-0.0738,-0.0721,-0.0706,-0.0673,-0.0661,-0.0631,-0.0617,-0.0584,-0.0564,-0.0544,-0.0516,-0.0511,-0.0528,-0.0491,-0.0489,-0.0499,-0.0525,-0.0541,-0.0545,-0.051,-0.051,-0.0511,-0.0529,0,-0.09,-0.087,-0.083,-0.0813,-0.0793,-0.075,-0.0736,-0.0705,-0.0677,-0.0657,-0.0626,-0.0604,-0.058,-0.0567,-0.0559,-0.0527,-0.0532,-0.0525,-0.0497,-0.0497,-0.0509,-0.0547,-0.0564,-0.0583,-0.053,-0.053,-0.0531,0,-0.0924,-0.0894,-0.0875,-0.0826,-0.0816,-0.0805,-0.0771,-0.0752,-0.0715,-0.0695,-0.0672,-0.0641,-0.0623,-0.0602,-0.0577,-0.0573,-0.0559,-0.0541,-0.0541,-0.0538,-0.0516,-0.0546,-0.0588,-0.0592,-0.0533,-0.0533,-0.0533,0,-0.0974,-0.0929,-0.0911,-0.0894,-0.0837,-0.083,-0.0806,-0.0769,-0.0751,-0.0722,-0.071,-0.0679,-0.0662,-0.0639,-0.0601,-0.059,-0.0579,-0.0556,-0.0563,-0.0564,-0.0563,-0.0564,-0.0605,-0.0553,-0.0553,-0.0553,-0.0553,0,-0.1004,-0.0994,-0.0932,-0.0922,-0.0909,-0.0864,-0.0852,-0.0825,-0.0791,-0.0775,-0.0735,-0.0721,-0.067,-0.065,-0.062,-0.0603,-0.0596,-0.0579,-0.0572,-0.0583,-0.0586,-0.0574,-0.0572,-0.0554,-0.0554,-0.0554,-0.0553,0,-0.1059,-0.1017,-0.0995,-0.0942,-0.0928,-0.0921,-0.0876,-0.0864,-0.0833,-0.0812,-0.0805,-0.0757,-0.073,-0.0689,-0.0651,-0.0631,-0.0619,-0.0606,-0.0631,-0.0627,-0.0636,-0.0636,-0.0672,-0.0675,-0.0621,-0.0622,-0.0622,0,-0.1082,-0.1073,-0.1018,-0.1003,-0.098,-0.0958,-0.0939,-0.0893,-0.0876,-0.0832,-0.0826,-0.0796,-0.077,-0.0729,-0.0691,-0.0662,-0.0648,-0.0662,-0.0643,-0.0655,-0.0649,-0.065,-0.0649,-0.0668,-0.0668,-0.0669,-0.067,0,-0.1127,-0.1106,-0.108,-0.1046,-0.1025,-0.0996,-0.0966,-0.0957,-0.0905,-0.0887,-0.0859,-0.0838,-0.0798,-0.0769,-0.0734,-0.071,-0.0681,-0.0675,-0.0676,-0.0688,-0.0704,-0.0696,-0.0645,-0.0675,-0.0675,-0.0674,-0.0674,-0.0674,-0.1166,-0.1156,-0.1116,-0.1088,-0.106,-0.1032,-0.1018,-0.0984,-0.096,-0.0923,-0.0897,-0.0871,-0.0833,-0.0783,-0.076,-0.0738,-0.0726,-0.0726,-0.0726,-0.0727,-0.0732,-0.0706,-0.0732,-0.0731,-0.0731,-0.0731,-0.0731,0,-0.121,-0.1181,-0.1156,-0.1114,-0.1092,-0.1065,-0.103,-0.1014,-0.099,-0.0957,-0.0932,-0.0899,-0.087,-0.0829,-0.0797,-0.0788,-0.0774,-0.0781,-0.0782,-0.0777,-0.0744,-0.0748,-0.0793,-0.0793,-0.0793,-0.0793,-0.0793,-0.0793,-0.123,-0.1211,-0.1185,-0.1152,-0.1123,-0.1096,-0.1078,-0.1052,-0.1025,-0.099,-0.0965,-0.0938,-0.0902,-0.0867,-0.0839,-0.0827,-0.0818,-0.0829,-0.0814,-0.0785,-0.0779,-0.0774,-0.0777,-0.0828,-0.0828,-0.0848,-0.0849,-0.0849]},{"header":{"parameterUnit":"m.s-1","parameterCategory":1,"la1":30.2991,"la2":30.254,"lo1":-89.0895,"lo2":-89.0444,"dy":0.0017,"dx":0.0017,"nx":28,"ny":28,"refTime":"2025-09-13T21:00:00:Z","depth":0,"parameterNumber":3,"parameterNumberName":"V-component_of_WINDS"},"data":[0,0,0,0,0,0,0,0,0,0,0,0,0,0,0,0,0,0,0,0,0,0,0,0,0,0,0,0,0,0,0,0,0,0,0,0,0,0,0,0,0,0,0,0,0,0,0,0,0,0,0,0,0,0,0,0,0,0,1.8108,1.8108,0,1.8149,1.815,1.815,1.8161,1.8161,1.816,1.816,1.8201,1.8203,1.8204,0,0,0,0,0,0,0,0,0,0,0,0,0,1.8038,1.8039,1.8108,1.8108,1.8109,1.8149,1.815,1.815,1.8161,1.8161,1.816,1.816,1.8201,1.8202,1.8204,0,0,0,0,0,0,0,0,0,0,0,0,0,1.8073,1.8039,1.8108,1.8119,1.812,1.8149,1.815,1.8151,1.8161,1.8161,1.816,1.816,1.82,1.8202,1.8204,1.8224,0,0,1.821,1.8211,0,0,0,0,0,0,0,0,1.8071,1.8075,1.8117,1.8118,1.812,1.815,1.814,1.8175,1.8161,1.8146,1.816,1.816,1.8184,1.8188,1.8196,1.8226,1.8228,1.8211,1.8212,1.8213,1.8213,0,0,0,0,0,0,0,1.8068,1.8073,1.8124,1.8117,1.8119,1.8122,1.8127,1.8147,1.8167,1.8147,1.8148,1.8153,1.8185,1.8194,1.8197,1.8229,1.821,1.8212,1.8213,1.8214,1.8279,1.8279,0,0,0,0,0,0,1.8064,1.8071,1.8123,1.8126,1.8094,1.8124,1.8129,1.814,1.8166,1.817,1.8153,1.8153,1.8191,1.8195,1.8199,1.8225,1.8213,1.8214,1.8216,1.8278,1.8279,1.8279,0,0,0,0,0,0,1.8062,1.8068,1.8121,1.8099,1.8106,1.8125,1.8138,1.8141,1.8151,1.8171,1.8174,1.8159,1.8191,1.8196,1.8218,1.8226,1.8215,1.8217,1.8278,1.8278,1.8279,1.8276,0,0,0,0,0,0,1.806,1.8068,1.8075,1.8099,1.8107,1.814,1.8139,1.8143,1.8154,1.8155,1.8177,1.8181,1.8191,1.8215,1.822,1.8229,1.8219,1.8277,1.8278,1.8279,1.8275,1.8276,1.8277,0,0,0,0,0,1.8058,1.8072,1.8076,1.8082,1.8117,1.814,1.8145,1.8157,1.8155,1.8163,1.8176,1.818,1.8225,1.8217,1.8223,1.8232,1.8277,1.8278,1.8279,1.8275,1.8276,1.8277,0,0,0,0,0,0,1.8048,1.8076,1.808,1.8102,1.8119,1.8142,1.8152,1.8158,1.8175,1.8175,1.8189,1.8194,1.8215,1.8226,1.8218,1.8254,1.8251,1.8253,1.8246,1.8247,1.8248,1.8245,1.822,0,0,0,0,0,1.8049,1.8066,1.8089,1.8107,1.8115,1.8132,1.8143,1.8151,1.8169,1.8176,1.8191,1.8208,1.8226,1.8237,1.8255,1.8278,1.8283,1.8287,1.8288,1.8289,1.829,1.8304,1.8306,1.8283,1.8283,1.8283,0,0,1.805,1.8067,1.8077,1.8105,1.8119,1.8137,1.8138,1.8156,1.8169,1.8179,1.8201,1.8213,1.8232,1.8255,1.8266,1.8265,1.8298,1.829,1.829,1.8292,1.8305,1.8307,1.8309,1.8284,1.8284,1.8284,0,0,1.8062,1.8076,1.8093,1.8108,1.8129,1.8141,1.8145,1.8168,1.8176,1.8199,1.8207,1.8222,1.8253,1.8267,1.8278,1.8297,1.8302,1.8303,1.8307,1.8321,1.8322,1.8324,1.8331,1.8333,1.8305,1.8305,1.8305,0,1.806,1.8087,1.8101,1.8119,1.8131,1.8142,1.8159,1.8172,1.8198,1.8207,1.8205,1.8245,1.8259,1.8286,1.8291,1.8299,1.8305,1.83,1.8321,1.8323,1.8325,1.8331,1.8334,1.8304,1.8304,1.8304,1.8304,0,1.8085,1.8103,1.8114,1.814,1.8154,1.8171,1.8188,1.82,1.8208,1.822,1.8243,1.8261,1.8283,1.829,1.8297,1.8318,1.8317,1.8318,1.8315,1.8327,1.8333,1.8336,1.8304,1.8304,1.8304,1.8304,0,0,1.8089,1.8124,1.8128,1.814,1.8165,1.818,1.8199,1.8221,1.8231,1.8249,1.8265,1.8292,1.8294,1.8307,1.8316,1.8327,1.8342,1.8327,1.8328,1.8329,1.8367,1.8365,1.8368,1.8345,1.8346,1.8346,1.8365,0,1.8104,1.8137,1.8151,1.8178,1.8196,1.8207,1.8223,1.8241,1.8253,1.827,1.8283,1.8302,1.8303,1.8311,1.8323,1.8337,1.8349,1.8336,1.836,1.8361,1.8354,1.8371,1.8369,1.8385,1.8367,1.8368,1.8368,0,1.8124,1.8143,1.8172,1.8197,1.8205,1.8219,1.8241,1.8257,1.8278,1.8286,1.8301,1.831,1.833,1.8327,1.8355,1.8346,1.8357,1.8366,1.8367,1.8369,1.8364,1.8373,1.8391,1.8393,1.8372,1.8372,1.8372,0,1.8125,1.8158,1.818,1.819,1.8219,1.8229,1.8242,1.8262,1.8275,1.8294,1.8303,1.8324,1.8336,1.8352,1.8367,1.8363,1.8394,1.8392,1.8401,1.8401,1.8406,1.8405,1.8426,1.8414,1.8414,1.8414,1.8414,0,1.8138,1.8156,1.818,1.8194,1.8214,1.823,1.825,1.8263,1.8281,1.8298,1.8309,1.8324,1.8343,1.836,1.8372,1.8394,1.8399,1.8406,1.8409,1.8405,1.8404,1.8411,1.841,1.8415,1.8415,1.8415,1.8415,0,1.8142,1.8159,1.8184,1.821,1.8217,1.8231,1.8253,1.8267,1.828,1.8301,1.8307,1.8328,1.8349,1.8366,1.8394,1.8402,1.8425,1.8428,1.8418,1.8419,1.8428,1.8427,1.8453,1.8457,1.8443,1.8444,1.8444,0,1.8149,1.8163,1.8191,1.8203,1.8216,1.8235,1.8248,1.8266,1.8279,1.8305,1.8315,1.8338,1.8357,1.8391,1.8409,1.843,1.8434,1.8442,1.8437,1.8433,1.8434,1.8432,1.8434,1.8442,1.8442,1.8442,1.8442,0,1.816,1.8169,1.8188,1.821,1.8226,1.8245,1.8264,1.8273,1.8293,1.8308,1.8331,1.8346,1.8375,1.8397,1.8421,1.8434,1.8442,1.8444,1.8447,1.8442,1.8436,1.8439,1.8419,1.8443,1.8443,1.8442,1.8442,1.8442,1.8166,1.8179,1.8201,1.8222,1.8238,1.8256,1.827,1.8286,1.8306,1.8331,1.834,1.8363,1.8385,1.8418,1.8432,1.845,1.845,1.8455,1.8456,1.8457,1.8457,1.8434,1.8455,1.8455,1.8455,1.8455,1.8455,0,1.8177,1.8193,1.8212,1.8239,1.8256,1.8262,1.8284,1.8297,1.8318,1.8337,1.8356,1.8383,1.8405,1.8425,1.8448,1.846,1.8464,1.8465,1.8464,1.8467,1.8455,1.845,1.8461,1.8461,1.8461,1.8461,1.8461,1.8461,1.8185,1.8208,1.8219,1.825,1.8265,1.8289,1.83,1.8317,1.8333,1.8362,1.8381,1.8394,1.8414,1.8439,1.846,1.8466,1.8474,1.8474,1.848,1.8469,1.8468,1.8467,1.8462,1.8476,1.8476,1.8491,1.8491,1.8491]}]]